DELTA 1 DEB, 21601

Orbit data source: Space-Track

DELTA 1 DEB, 21601 is space debris in SSO originally from a launch on Thu, 12 Jun 1975 UTC launched from the Air Force Western Test Range (AFWTR). Debris objects in space refer to the collection of defunct objects orbiting the Earth. Examples of debris include non-operational satellites, rocket bodies, and fragments generated from explosions, collisions, or faulty payload assembly.

Loading next visibility...
Identifier
21601, 1975-052HV
Orbit
SSO
Country
Flag of USUS
Related business
Manufacturer
Unknown
Mission
Spacecraft
Bus & Motor
Unknown
Mass
Unknown
Launch date (UTC)
1975-06-12 (51 years ago)
Launch vehicle
Unknown
Launch site
Air Force Western Test Range (AFWTR)
Object type
Payload
Rocket body
Debris
Shape & HBR
Unknown shape, 0.1 m
Radar Cross Section
Small (<0.1 m²)

Expand to show TLE details & history
Last TLE update: 6 days ago

TLE from 6 days ago
0 DELTA 1 DEB
1 21601U 75052HV  25348.91036434  .00000227  00000-0  99073-3 0  9993
2 21601  99.7946 327.3149 0541076 120.6794 259.7373 12.50233351573351
Epoch: 2025-12-14T21:50Z
TLE epoch observation values (Epoch: 2025-12-14T21:50:55.478Z)
Latitude
14.15798°
Longitude
-86.71659°
Altitude
1,562.94 km
Speed
7.043 km/s
True Right ascension
21h 39m 19s
True Declination
14° 05' 06"
Sunlit
Object was in daylight at epoch
Visualization orbit readout
Latitude
Unknown
Longitude
Unknown
Altitude
Unknown
Speed
Unknown
Apparent Right ascension
Unknown
Apparent Declination
Unknown
Sunlit
N/A
Visualization observer readout
Local Sidereal Time
12:29:17
Azimuth
Unknown
Elevation
Unknown
Doppler factor
Unknown
Orbital elements
Apogee altitude
1,885.103 km
Perigee altitude
1,036.795 km
Semi-major axis
7,839.086 km
Eccentricity
0.05411
Inclination
99.7946°
RAAN
327.3149°
Arg. of periapsis
120.6794°
True anomaly
253.71996°
Mean anomaly
259.7373°
Eccentric anomaly
256.72006°
Mean motion
3.12712 °/min
Orbital period
115.12 mins
BSTAR
0.00099073
Loading maneuver chart data...
Computing Atmospheric mass density...
Loading historical data...
Loading historical data...
Loading historical data...
Loading historical data...
Loading historical data...
Loading historical data...
Loading historical data...

Documentation

Showing up to 5 results
|